This is the latest recevied weather packets stored in our database for station/object IZ1MEU-13. If no packets are shown the sender has not sent any weather packets the latest 10 day(s).
| Time | Temp. | Humidity | Pressure | Rain* | Wind** | Luminosity | Snow |
|---|---|---|---|---|---|---|---|
| 1777677082 | 10° C | 46% | 1028.6 hPa | - | - | - | - |
| 1777675879 | 10° C | 46% | 1028.7 hPa | - | - | - | - |
| 1777674676 | 10.56° C | 45% | 1028.7 hPa | - | - | - | - |
| 1777673472 | 10.56° C | 45% | 1028.7 hPa | - | - | - | - |
| 1777672268 | 10° C | 45% | 1028.7 hPa | - | - | - | - |
| 1777671065 | 10° C | 46% | 1028.7 hPa | - | - | - | - |
| 1777669862 | 10.56° C | 45% | 1028.6 hPa | - | - | - | - |
| 1777668658 | 10.56° C | 44% | 1028.7 hPa | - | - | - | - |
| 1777667454 | 10.56° C | 44% | 1028.5 hPa | - | - | - | - |
| 1777666251 | 11.11° C | 44% | 1028.4 hPa | - | - | - | - |
| 1777665048 | 11.11° C | 43% | 1028.4 hPa | - | - | - | - |
| 1777663844 | 11.11° C | 43% | 1028.2 hPa | - | - | - | - |
| 1777662641 | 11.67° C | 42% | 1028 hPa | - | - | - | - |
| 1777661437 | 12.22° C | 41% | 1027.8 hPa | - | - | - | - |
| 1777660234 | 13.33° C | 40% | 1027.7 hPa | - | - | - | - |
| 1777659030 | 13.89° C | 39% | 1027.7 hPa | - | - | - | - |
| 1777657827 | 15° C | 38% | 1027.7 hPa | - | - | - | - |
| 1777656618 | 16.11° C | 35% | 1027.8 hPa | - | - | - | - |
| 1777655413 | 16.67° C | 34% | 1027.7 hPa | - | - | - | - |
| 1777654210 | 17.22° C | 33% | 1027.9 hPa | - | - | - | - |
| 1777653006 | 17.78° C | 34% | 1028 hPa | - | - | - | - |
| 1777650598 | 18.33° C | 34% | 1028.3 hPa | - | - | - | - |
| 1777649394 | 17.78° C | 34% | 1028.4 hPa | - | - | - | - |
| 1777648190 | 17.22° C | 33% | 1028.7 hPa | - | - | - | - |
| 1777646986 | 17.22° C | 33% | 1028.8 hPa | - | - | - | - |
* Rain since midnight (hover to see other rain measurements)
** Current wind speed in m/s (hover to see current wind gust speed)